Location: Gebenbach
(49.5378°N, 11.8735°E)
Time: 03:38:45
(UTC+00:00)

NOSS 3-4 (C) - Pass Details

Date: 29 October 2020
Orbit: 886 x 1326 km, 63.4° (Epoch: 06 November)

Event Time Altitude Azimuth Distance (km) Brightness Sun altitude
Rises 17:52:54 0° 316° (NW) 3,763 7.3 -19.6°
Reaches altitude 10° 17:55:26 10° 319° (NW) 2,867 6.5 -20.0°
Maximum altitude 18:02:15 68° 43° (NE) 1,215 3.8 -21.1°
Enters shadow 18:05:43 34° 116° (ESE) 1,831 4.4 -21.7°
